When you browse on this site, cookies collect data to enhance your experience and personalize the content and advertising you see.
Visit our Privacy Policy to learn more. By continuing to use the site, you agree to this use of cookies and data.
  • In France
  • List of Countries
  • For 7 days
  • Water Temperature
  • Weather Map
  • Weather Widgets
  • user-avatar
    Login

    Hourly Weather Holhol

    Today, 2 June, Tuesday

    Time Temperature Precipitation Wind Pressure Humidity
    00:00 +32°C° 0 mm 2 mps 710 mmHg 56%
    01:00 +31°C° 0 mm 2 mps 709 mmHg 54%
    02:00 +31°C° 0 mm 2 mps 709 mmHg 52%
    03:00 +31°C° 0 mm 1 mps 709 mmHg 52%
    04:00 +31°C° 0 mm 1 mps 709 mmHg 50%
    05:00 +30°C° 0 mm 1 mps 709 mmHg 48%
    06:00 +30°C° 0 mm 1 mps 710 mmHg 46%
    07:00 +32°C° 0 mm 2 mps 710 mmHg 39%
    08:00 +36°C° 0 mm 2 mps 711 mmHg 33%
    09:00 +38°C° 0 mm 3 mps 711 mmHg 26%
    10:00 +39°C° 0 mm 3 mps 711 mmHg 25%
    11:00 +39°C° 0 mm 3 mps 711 mmHg 24%
    12:00 +41°C° 0 mm 4 mps 711 mmHg 23%
    13:00 +42°C° 0 mm 4 mps 710 mmHg 23%
    14:00 +42°C° 0 mm 4 mps 709 mmHg 22%
    15:00 +42°C° 0 mm 4 mps 709 mmHg 21%
    16:00 +41°C° 0 mm 5 mps 708 mmHg 26%
    17:00 +40°C° 0 mm 5 mps 708 mmHg 31%
    18:00 +37°C° 0 mm 5 mps 708 mmHg 36%
    19:00 +36°C° 0 mm 5 mps 708 mmHg 42%
    20:00 +35°C° 0 mm 4 mps 709 mmHg 48%
    21:00 +34°C° 0 mm 4 mps 709 mmHg 54%
    22:00 +33°C° 0 mm 4 mps 709 mmHg 54%
    23:00 +33°C° 0 mm 3 mps 709 mmHg 54%

    Tomorrow, 3 June, Wednesday

    Time Temperature Precipitation Wind Pressure Humidity
    00:00 +32°C° 0 mm 2 mps 709 mmHg 53%
    01:00 +32°C° 0 mm 2 mps 709 mmHg 51%
    02:00 +31°C° 0 mm 2 mps 709 mmHg 49%
    03:00 +31°C° 0 mm 1 mps 709 mmHg 47%
    04:00 +31°C° 0 mm 1 mps 709 mmHg 46%
    05:00 +30°C° 0 mm 1 mps 709 mmHg 46%
    06:00 +30°C° 0 mm 1 mps 710 mmHg 45%
    07:00 +31°C° 0 mm 1 mps 710 mmHg 41%
    08:00 +34°C° 0 mm 2 mps 711 mmHg 38%
    09:00 +35°C° 0 mm 2 mps 711 mmHg 34%
    10:00 +37°C° 0 mm 2 mps 711 mmHg 31%
    11:00 +38°C° 0 mm 3 mps 710 mmHg 29%
    12:00 +40°C° 0 mm 4 mps 710 mmHg 26%
    13:00 +41°C° 0 mm 4 mps 710 mmHg 26%
    14:00 +41°C° 0 mm 4 mps 709 mmHg 25%
    15:00 +42°C° 0 mm 5 mps 708 mmHg 25%
    16:00 +40°C° 0 mm 4 mps 708 mmHg 32%
    17:00 +37°C° 0 mm 4 mps 708 mmHg 39%
    18:00 +35°C° 0 mm 4 mps 707 mmHg 45%
    19:00 +34°C° 0 mm 4 mps 708 mmHg 53%
    20:00 +33°C° 0 mm 5 mps 709 mmHg 61%
    21:00 +32°C° 0 mm 5 mps 710 mmHg 68%
    22:00 +30°C° 0 mm 6 mps 710 mmHg 72%
    23:00 +29°C° 0 mm 6 mps 710 mmHg 76%

    Day after tomorrow, 4 June, Thursday

    Time Temperature Precipitation Wind Pressure Humidity
    00:00 +29°C° 0 mm 7 mps 710 mmHg 80%
    01:00 +29°C° 0 mm 6 mps 710 mmHg 82%
    02:00 +28°C° 0 mm 5 mps 709 mmHg 83%
    03:00 +28°C° 0 mm 5 mps 709 mmHg 85%
    04:00 +28°C° 0.1 mm 4 mps 709 mmHg 83%
    05:00 +28°C° 0.1 mm 3 mps 710 mmHg 82%
    06:00 +28°C° 0.1 mm 2 mps 710 mmHg 81%
    07:00 +30°C° 0 mm 2 mps 711 mmHg 71%
    08:00 +31°C° 0 mm 2 mps 711 mmHg 62%
    09:00 +32°C° 0 mm 2 mps 711 mmHg 53%
    10:00 +32°C° 0 mm 2 mps 711 mmHg 50%
    11:00 +34°C° 0 mm 3 mps 711 mmHg 47%
    12:00 +34°C° 0 mm 4 mps 711 mmHg 44%
    13:00 +35°C° 0 mm 5 mps 710 mmHg 45%
    14:00 +35°C° 0 mm 5 mps 710 mmHg 46%
    15:00 +36°C° 0 mm 6 mps 709 mmHg 46%
    16:00 +34°C° 0 mm 6 mps 709 mmHg 53%
    17:00 +33°C° 0 mm 6 mps 709 mmHg 59%
    18:00 +30°C° 0 mm 6 mps 709 mmHg 65%
    19:00 +30°C° 0 mm 5 mps 710 mmHg 66%
    20:00 +29°C° 0 mm 5 mps 710 mmHg 66%
    21:00 +29°C° 0 mm 4 mps 710 mmHg 67%
    22:00 +29°C° 0 mm 3 mps 711 mmHg 66%
    23:00 +29°C° 0 mm 3 mps 711 mmHg 66%

    5 June, Friday

    Time Temperature Precipitation Wind Pressure Humidity
    00:00 +29°C° 0 mm 2 mps 711 mmHg 65%
    01:00 +29°C° 0 mm 2 mps 710 mmHg 66%
    02:00 +28°C° 0 mm 1 mps 710 mmHg 66%
    03:00 +28°C° 0 mm 1 mps 710 mmHg 67%
    04:00 +28°C° 0 mm 1 mps 710 mmHg 67%
    05:00 +28°C° 0 mm 1 mps 711 mmHg 67%
    06:00 +28°C° 0 mm 1 mps 711 mmHg 67%
    07:00 +29°C° 0 mm 1 mps 712 mmHg 62%
    08:00 +30°C° 0 mm 1 mps 712 mmHg 58%
    09:00 +31°C° 0 mm 1 mps 713 mmHg 53%
    10:00 +34°C° 0 mm 2 mps 713 mmHg 49%
    11:00 +35°C° 0 mm 2 mps 712 mmHg 44%
    12:00 +36°C° 0 mm 3 mps 712 mmHg 39%
    13:00 +36°C° 0 mm 4 mps 711 mmHg 40%
    14:00 +36°C° 0 mm 5 mps 711 mmHg 41%
    15:00 +36°C° 0 mm 6 mps 710 mmHg 42%
    16:00 +35°C° 0 mm 5 mps 710 mmHg 45%
    17:00 +34°C° 0 mm 5 mps 710 mmHg 48%
    18:00 +33°C° 0 mm 5 mps 710 mmHg 51%
    19:00 +33°C° 0 mm 4 mps 710 mmHg 53%
    20:00 +32°C° 0 mm 4 mps 711 mmHg 55%
    21:00 +31°C° 0 mm 3 mps 711 mmHg 56%
    22:00 +30°C° 0 mm 2 mps 711 mmHg 57%
    23:00 +30°C° 0 mm 2 mps 711 mmHg 58%

    6 June, Saturday

    Time Temperature Precipitation Wind Pressure Humidity
    00:00 +30°C° 0 mm 1 mps 711 mmHg 58%
    01:00 +30°C° 0 mm 1 mps 711 mmHg 57%
    02:00 +30°C° 0 mm 1 mps 711 mmHg 56%
    03:00 +30°C° 0 mm 1 mps 711 mmHg 55%
    04:00 +28°C° 0 mm 0 mps 711 mmHg 55%
    05:00 +28°C° 0 mm 0 mps 711 mmHg 54%
    06:00 +28°C° 0 mm 0 mps 711 mmHg 54%
    07:00 +31°C° 0 mm 1 mps 712 mmHg 50%
    08:00 +33°C° 0 mm 3 mps 713 mmHg 46%
    09:00 +34°C° 0 mm 4 mps 713 mmHg 42%
    10:00 +36°C° 0 mm 4 mps 713 mmHg 38%
    11:00 +37°C° 0 mm 4 mps 712 mmHg 35%
    12:00 +38°C° 0 mm 4 mps 712 mmHg 31%
    13:00 +40°C° 0 mm 4 mps 711 mmHg 29%
    14:00 +39°C° 0 mm 3 mps 711 mmHg 28%
    15:00 +40°C° 0 mm 3 mps 710 mmHg 26%
    16:00 +39°C° 0 mm 2 mps 710 mmHg 28%
    17:00 +38°C° 0 mm 2 mps 709 mmHg 31%
    18:00 +38°C° 0 mm 2 mps 709 mmHg 34%
    19:00 +36°C° 0 mm 2 mps 709 mmHg 39%
    20:00 +35°C° 0 mm 2 mps 709 mmHg 44%
    21:00 +33°C° 0 mm 1 mps 710 mmHg 49%
    22:00 +32°C° 0 mm 1 mps 710 mmHg 51%
    23:00 +32°C° 0 mm 1 mps 710 mmHg 52%

    7 June, Sunday

    Time Temperature Precipitation Wind Pressure Humidity
    00:00 +31°C° 0 mm 1 mps 709 mmHg 53%
    01:00 +31°C° 0 mm 1 mps 709 mmHg 52%
    02:00 +31°C° 0 mm 1 mps 709 mmHg 51%
    03:00 +29°C° 0 mm 0 mps 709 mmHg 50%
    04:00 +31°C° 0 mm 1 mps 709 mmHg 49%
    05:00 +31°C° 0 mm 2 mps 710 mmHg 48%
    06:00 +31°C° 0 mm 3 mps 710 mmHg 46%
    07:00 +34°C° 0 mm 5 mps 711 mmHg 42%
    08:00 +35°C° 0 mm 7 mps 711 mmHg 39%
    09:00 +38°C° 0 mm 9 mps 712 mmHg 35%
    10:00 +39°C° 0 mm 8 mps 712 mmHg 32%
    11:00 +40°C° 0 mm 8 mps 711 mmHg 29%
    12:00 +43°C° 0 mm 7 mps 711 mmHg 25%
    13:00 +42°C° 0 mm 6 mps 710 mmHg 23%
    14:00 +43°C° 0 mm 5 mps 710 mmHg 21%
    15:00 +43°C° 0 mm 4 mps 709 mmHg 19%
    16:00 +43°C° 0 mm 4 mps 709 mmHg 21%
    17:00 +42°C° 0 mm 3 mps 709 mmHg 24%
    18:00 +40°C° 0 mm 3 mps 708 mmHg 26%
    19:00 +38°C° 0 mm 2 mps 709 mmHg 30%
    20:00 +37°C° 0 mm 2 mps 709 mmHg 34%
    21:00 +34°C° 0 mm 1 mps 709 mmHg 39%
    22:00 +35°C° 0 mm 2 mps 709 mmHg 36%
    23:00 +35°C° 0 mm 3 mps 709 mmHg 33%
    Show more